This demonstration page uses our WeatherBlox Daily Observations layout. Learn more.

40.92945, -100.16068

Hourly Observations for March 8, 2020

Temp ( °F °C ) Dew Point ( °F °C ) Humidity (%) Winds ( mph kmh ) Pressure ( in mb ) Visibility ( mi km ) Precip ( " mm )
12:15 am 00:15 Clear 51 10.8 33 0.5 49 49 S 20 31 29.82 1010 10 16.0934 0 0
12:35 am 00:35 Clear 51 10.4 33 0.5 51 51 S 18 30 29.83 1010 10 16.0934 0 0
12:55 am 00:55 Clear 50 10.1 33 0.7 52 52 S 16 26 29.83 1010 10 16.0934 0 0
1:15 am 01:15 Clear 50 9.9 33 0.8 53 53 S 16 26 29.82 1010 10 16.0934 0 0
1:35 am 01:35 Clear 49 9.6 34 1 55 55 S 14 22 29.82 1010 10 16.0934 0 0
1:55 am 01:55 Clear 49 9.3 34 1.1 57 57 S 14 22 29.83 1010 10 16.0934 0 0
3:15 am 03:15 Clear 49 9.6 35 1.5 57 57 S 14 22 29.82 1010 10 16.0934 0 0
3:35 am 03:35 Clear 49 9.7 35 1.6 57 57 S 10 17 29.81 1010 10 16.0934 0 0
3:55 am 03:55 Clear 49 9.4 35 1.9 60 60 SSE 7 11 29.82 1010 10 16.0934 0 0
4:15 am 04:15 Clear 49 9.3 36 2 61 61 SSE 9 15 29.8 1009 10 16.0934 0 0
4:35 am 04:35 Clear 49 9.7 37 2.5 61 61 SSE 8 13 29.79 1009 10 16.0934 0 0
4:55 am 04:55 Clear 49 9.6 37 2.7 62 62 SSE 7 11 29.79 1009 10 16.0934 0 0
5:15 am 05:15 Clear 49 9.7 37 3 63 63 S 10 17 29.78 1009 10 16.0934 0 0
5:35 am 05:35 Clear 48 8.8 37 3 67 67 SSE 9 15 29.79 1009 10 16.0934 0 0
5:55 am 05:55 Clear 48 9.1 38 3.3 67 67 SE 8 13 29.79 1009 10 16.0934 0 0
6:15 am 06:15 Clear 49 9.4 38 3.4 66 66 SE 6 9 29.79 1009 10 16.0934 0 0
6:35 am 06:35 Clear 47 8.6 38 3.3 70 70 SSE 10 17 29.79 1009 10 16.0934 0 0
6:55 am 06:55 Clear 48 9 39 3.7 70 70 S 12 19 29.79 1009 10 16.0934 0 0
7:15 am 07:15 Clear 48 8.7 39 3.7 71 71 SE 6 9 29.79 1009 10 16.0934 0 0
7:35 am 07:35 Clear 47 8.6 38 3.6 71 71 S 12 19 29.79 1009 10 16.0934 0 0
7:55 am 07:55 Clear 46 7.7 38 3.5 75 75 S 12 19 29.8 1009 10 16.0934 0 0
8:15 am 08:15 Sunny 44 6.9 38 3.2 78 78 ESE 6 9 29.81 1009 10 16.0934 0 0
8:35 am 08:35 Sunny 45 7.1 38 3.5 78 78 S 8 13 29.81 1009 10 16.0934 0 0
8:55 am 08:55 Sunny 46 7.8 39 3.9 77 77 S 9 15 29.79 1009 10 16.0934 0 0
9:15 am 09:15 Sunny 48 9 40 4.2 72 72 S 12 19 29.79 1009 10 16.0934 0 0
9:35 am 09:35 Sunny 49 9.6 40 4.4 70 70 S 12 19 29.77 1008 10 16.0934 0 0
9:55 am 09:55 Sunny 51 10.7 40 4.6 66 66 S 14 22 29.77 1008 10 16.0934 0 0
10:15 am 10:15 Sunny 53 11.7 41 4.8 63 63 S 14 22 29.77 1008 10 16.0934 0 0
10:35 am 10:35 Sunny 55 12.5 40 4.7 59 59 SSW 14 22 29.76 1008 10 16.0934 0 0
10:55 am 10:55 Sunny 56 13.4 40 4.7 56 56 SW 15 24 29.75 1007 10 16.0934 0 0
11:15 am 11:15 Sunny 59 14.8 41 5.1 52 52 SW 14 22 29.74 1007 10 16.0934 0 0
11:35 am 11:35 Sunny 59 15.1 40 4.7 50 50 SW 13 20 29.74 1007 10 16.0934 0 0
11:55 am 11:55 Sunny 60 15.3 40 4.5 49 49 WSW 10 17 29.74 1007 10 16.0934 0 0
12:15 pm 12:15 Sunny 61 16.2 41 5 48 48 WSW 8 13 29.73 1007 10 16.0934 0 0
12:35 pm 12:35 Sunny 63 17.1 42 5.3 46 46 SW 3 6 29.71 1006 10 16.0934 0 0
12:55 pm 12:55 Sunny 65 18.4 41 5 41 41 SW 8 13 29.7 1006 10 16.0934 0 0
1:15 pm 13:15 Sunny 67 19.5 41 5.1 39 39 SSW 10 17 29.68 1005 10 16.0934 0 0
1:35 pm 13:35 Sunny 68 20.2 42 5.3 38 38 SSW 7 11 29.67 1005 10 16.0934 0 0
1:55 pm 13:55 Sunny 70 21.3 38 3.6 31 31 WSW 7 11 29.66 1004 10 16.0934 0 0
2:15 pm 14:15 Sunny 71 21.4 37 3 30 30 W 5 7 29.66 1004 10 16.0934 0 0
2:35 pm 14:35 Sunny 72 22 34 1.1 25 25 NW 6 9 29.65 1004 10 16.0934 0 0
2:55 pm 14:55 Sunny 73 22.7 35 1.5 25 25 NW 6 9 29.63 1003 10 16.0934 0 0
3:15 pm 15:15 Sunny 72 22.3 33 0.6 24 24 Calm 29.63 1004 10 16.0934 0 0
3:35 pm 15:35 Sunny 73 22.6 33 0.7 24 24 Calm 29.63 1003 10 16.0934 0 0
3:55 pm 15:55 Sunny 73 23 34 0.9 23 23 SSW 3 6 29.63 1003 10 16.0934 0 0
4:15 pm 16:15 Sunny 74 23.1 34 0.9 23 23 ESE 5 7 29.63 1003 10 16.0934 0 0
4:35 pm 16:35 Sunny 74 23.3 33 0.4 22 22 Calm 29.63 1003 10 16.0934 0 0
4:55 pm 16:55 Sunny 74 23.5 35 1.6 24 24 SE 5 7 29.62 1003 10 16.0934 0 0
5:15 pm 17:15 Sunny 74 23.1 35 1.4 24 24 ESE 8 13 29.63 1003 10 16.0934 0 0
5:35 pm 17:35 Sunny 73 23 35 1.7 25 25 E 6 9 29.63 1003 10 16.0934 0 0
5:55 pm 17:55 Sunny 73 22.8 35 1.7 25 25 ENE 7 11 29.62 1003 10 16.0934 0 0
6:15 pm 18:15 Sunny 72 22.4 37 2.7 27 27 ENE 5 7 29.63 1003 10 16.0934 0 0
6:35 pm 18:35 Sunny 72 22.3 39 4.1 31 31 ENE 5 7 29.64 1004 10 16.0934 0 0
6:55 pm 18:55 Sunny 71 21.4 38 3.3 31 31 ENE 6 9 29.64 1004 10 16.0934 0 0
7:15 pm 19:15 Sunny 68 20.2 36 2.4 31 31 NE 6 9 29.65 1004 7 11.26538 0 0
7:35 pm 19:35 Sunny 65 18.1 37 2.8 36 36 E 8 13 29.67 1005 10 16.0934 0 0
7:55 pm 19:55 Clear 66 18.8 44 6.7 45 45 S 16 26 29.68 1005 10 16.0934 0 0
8:15 pm 20:15 Clear 63 17.3 44 6.7 50 50 SSE 12 19 29.7 1006 10 16.0934 0 0
8:35 pm 20:35 Clear 61 16 44 6.6 54 54 SSE 12 19 29.72 1006 10 16.0934 0 0
8:55 pm 20:55 Clear 60 15.4 44 6.6 56 56 S 13 20 29.72 1007 10 16.0934 0 0
9:15 pm 21:15 Clear 60 15.3 44 6.7 57 57 S 16 26 29.73 1007 10 16.0934 0 0
9:35 pm 21:35 Clear 58 14.6 44 6.6 59 59 S 16 26 29.74 1007 10 16.0934 0 0
9:55 pm 21:55 Partly Cloudy 58 14.4 44 6.6 60 60 NNE 18 30 29.79 1009 10 16.0934 0 0
10:15 pm 22:15 Mostly Cloudy 57 13.9 42 5.3 56 56 NNE 17 28 29.82 1010 10 16.0934 0 0
10:35 pm 22:35 Cloudy 52 11.1 40 4.7 65 65 NNE 23 37 29.86 1011 10 16.0934 0 0
10:55 pm 22:55 Cloudy 50 9.8 40 4.3 69 69 NNE 24 39 29.89 1012 10 16.0934 0 0
11:15 pm 23:15 Cloudy with Light Rain 46 7.7 40 4.7 82 82 NNE 20 31 29.92 1013 7 11.26538 0.01 0.254
11:35 pm 23:35 Cloudy 44 6.7 40 4.4 85 85 NNE 20 31 29.93 1014 10 16.0934 0.02 0.508
11:55 pm 23:55 Cloudy 43 6 39 3.8 86 86 NNE 22 35 29.94 1014 10 16.0934 0.02 0.508

Powered by AerisWeather